Location: Slemon Park
(46.4340°N, 63.8219°W)
Time: 06:02:25
(UTC-03:00)

ISS - All Passes

Search period start: 30 April 2016 00:00
Search period end: 10 May 2016 00:00
Orbit: 402 x 405 km, 51.6° (Epoch: 29 April)

Date Brightness Start Highest point End Pass type
(mag) Time Alt. Az. Time Alt. Az. Time Alt. Az.
30 Apr - 09:22:19 10° SW 09:25:26 44° SE 09:28:34 10° ENE daylight
30 Apr - 10:58:47 10° W 11:01:56 44° NNW 11:05:05 10° ENE daylight
30 Apr - 12:35:53 10° WNW 12:38:52 31° N 12:41:51 10° ENE daylight
30 Apr - 14:12:25 10° WNW 14:15:42 68° NNE 14:18:57 10° ESE daylight
30 Apr - 15:49:18 10° W 15:51:54 22° SW 15:54:30 10° SSE daylight
01 May - 08:30:21 10° SSW 08:33:06 25° SE 08:35:53 10° E daylight
01 May - 10:06:08 10° WSW 10:09:23 61° NNW 10:12:38 10° ENE daylight
01 May - 11:43:16 10° WNW 11:46:14 31° N 11:49:13 10° ENE daylight
01 May - 13:19:58 10° WNW 13:23:10 47° NNE 13:26:21 10° E daylight
01 May - 14:56:32 10° WNW 14:59:35 37° SW 15:02:38 10° SSE daylight
02 May - 07:38:53 10° S 07:40:50 15° SE 07:42:48 10° E daylight
02 May - 09:13:36 10° WSW 09:16:53 88° SE 09:20:10 10° ENE daylight
02 May - 10:50:35 10° WNW 10:53:36 34° N 10:56:39 10° ENE daylight
02 May - 12:27:29 10° WNW 12:30:34 37° NNE 12:33:39 10° E daylight
02 May - 14:03:57 10° WNW 14:07:11 65° SSW 14:10:25 10° SE daylight
02 May - 15:42:25 10° WSW 15:43:05 10° SW 15:43:46 10° SW daylight
03 May - 08:21:14 10° SW 08:24:26 52° SSE 08:27:38 10° ENE daylight
03 May - 09:57:52 10° W 10:00:59 40° NNW 10:04:06 10° ENE daylight
03 May - 11:34:56 10° WNW 11:37:56 32° N 11:40:56 10° ENE daylight
03 May - 13:11:26 10° WNW 13:14:43 78° NNE 13:17:59 10° ESE daylight
03 May - 14:48:30 10° W 14:50:51 18° SW 14:53:12 10° S daylight
04 May - 07:29:08 10° SSW 07:32:03 30° SE 07:34:58 10° ENE daylight
04 May - 09:05:11 10° W 09:08:24 54° NNW 09:11:37 10° ENE daylight
04 May - 10:42:18 10° WNW 10:45:17 31° N 10:48:15 10° ENE daylight
04 May - 12:18:57 10° WNW 12:22:10 53° NNE 12:25:23 10° E daylight
04 May - 13:55:35 10° WNW 13:58:32 31° SW 14:01:28 10° SSE daylight
05 May - 06:37:25 10° S 06:39:43 18° SE 06:42:02 10° E daylight
05 May - 08:12:34 10° WSW 08:15:51 80° NNW 08:19:07 10° ENE daylight
05 May - 09:49:36 10° WNW 09:52:37 32° N 09:55:37 10° ENE daylight
05 May - 11:26:27 10° WNW 11:29:33 40° NNE 11:32:41 10° E daylight
05 May - 13:02:56 10° WNW 13:06:07 54° SSW 13:09:19 10° SE daylight
06 May - 05:47:08 10° SE 05:47:27 10° SE 05:47:47 10° SE daylight
06 May - 07:20:07 10° SW 07:23:21 63° SSE 07:26:36 10° ENE daylight
06 May - 08:56:52 10° W 08:59:58 37° NNW 09:03:03 10° ENE daylight
06 May - 10:33:53 10° WNW 10:36:54 33° N 10:39:56 10° ENE daylight
06 May - 12:10:22 10° WNW 12:13:39 90° SSW 12:16:55 10° ESE daylight
06 May - 13:47:41 10° W 13:49:42 15° SW 13:51:44 10° S daylight
07 May - 06:27:52 10° SSW 06:30:54 36° SE 06:33:57 10° ENE daylight
07 May - 08:04:08 10° W 08:07:19 48° NNW 08:10:31 10° ENE daylight
07 May - 09:41:15 10° WNW 09:44:14 31° N 09:47:13 10° ENE daylight
07 May - 11:17:51 10° WNW 11:21:05 59° NNE 11:24:19 10° ESE daylight
07 May - 12:54:34 10° W 12:57:23 26° SW 13:00:10 10° SSE daylight
08 May - 05:35:58 10° S 05:38:32 21° SE 05:41:06 10° E daylight
08 May - 07:11:28 10° WSW 07:14:43 70° NNW 07:18:00 10° ENE daylight
08 May - 08:48:33 10° WNW 08:51:32 32° N 08:54:32 10° ENE daylight
08 May - 10:25:19 10° WNW 10:28:28 43° NNE 10:31:37 10° E daylight
08 May - 12:01:49 10° WNW 12:04:58 45° SW 12:08:06 10° SE daylight
09 May - 04:44:47 10° SSE 04:46:13 12° SE 04:47:38 10° ESE visible
09 May - 06:18:55 10° SW 06:22:11 74° SSE 06:25:27 10° ENE daylight
09 May - 07:55:47 10° W 07:58:50 35° N 08:01:54 10° ENE daylight
09 May - 09:32:45 10° WNW 09:35:48 35° N 09:38:51 10° ENE daylight
09 May - 11:09:12 10° WNW 11:12:29 78° SSW 11:15:45 10° ESE daylight
09 May - 12:46:53 10° WSW 12:48:28 13° SW 12:50:02 10° SSW daylight
